Lid_Strength_Index
1 0 3 7 12 12 13 13 12 11 11 8 7 8 9 8 10 12 2 0 -0 -0 -0 -0 -1 -1 -0 -0 -0 0 -0 -0 -1 -1 -1 -1 -1 -1 -1 -1 -1 -1 -1 -2 -2 -2 -1 -1 -1
1 1 6 10 13 15 14 12 12 10 8 6 7 8 8 10 5 4 3 0 -0 -0 0 0 -1 -1 -0 -0 -0 0 -0 -0 -0 -1 -1 -1 -1 -1 -1 -1 -1 -1 -2 -2 -2 -2 -1 -1 -1
2 1 9 11 13 15 14 12 10 9 7 8 8 6 7 8 4 3 1 -0 -0 0 1 0 -1 -0 -0 -0 -0 0 0 0 0 -0 -1 -1 -1 -1 -1 -1 -1 -1 -2 -2 -2 -2 -2 -2 -2
3 6 10 13 15 13 12 10 9 9 8 6 7 9 6 3 4 2 0 0 1 1 1 -1 -1 -0 -0 -0 0 0 0 0 0 1 0 -1 -1 -1 -1 -1 -1 -2 -1 -1 -1 -2 -2 -2 -2
4 7 12 15 14 12 10 8 8 10 9 8 7 10 8 4 1 1 0 0 1 1 1 0 -1 -0 -0 0 1 1 1 1 1 1 0 0 -0 -1 -1 -1 -1 -1 -1 -1 -1 -1 -1 -1 -1
7 7 13 15 15 10 9 8 8 9 8 8 8 8 8 2 2 1 0 1 1 1 2 1 1 0 0 1 1 1 2 2 1 1 1 1 0 -0 -1 -1 -1 -1 -1 -1 -1 -1 -1 -1 -0
8 10 13 13 13 12 10 7 8 9 8 9 6 10 6 4 2 1 1 1 1 2 3 3 2 1 1 1 1 2 2 2 2 1 2 2 1 1 0 -1 -1 -1 -0 0 0 -0 0 1 1
8 9 12 12 12 13 9 8 7 8 9 5 5 10 9 4 1 1 1 1 2 3 3 3 3 3 3 3 2 2 2 2 2 2 2 2 2 2 2 1 -0 -0 0 0 1 1 2 3 3
6 11 14 12 12 11 8 9 7 5 7 7 6 6 4 2 1 2 2 2 2 3 4 4 4 4 4 4 4 3 2 3 3 3 3 4 5 5 5 3 1 0 1 1 2 2 3 5 5
8 12 12 12 11 11 9 9 8 8 8 8 7 4 3 3 3 3 3 4 4 5 4 4 4 5 5 4 6 6 6 6 6 6 6 6 6 6 6 6 3 2 3 3 3 5 5 7 9
8 11 10 10 10 10 9 8 7 8 10 8 8 6 4 4 4 3 3 4 5 5 5 5 5 6 7 6 7 7 7 7 7 7 6 6 6 7 7 7 7 6 5 4 5 8 10 10 10
10 10 10 9 9 9 8 7 8 9 8 6 5 4 4 5 5 4 4 5 5 6 6 5 5 6 7 6 7 7 7 7 7 7 7 7 8 8 7 7 7 7 5 4 6 8 9 11 11
10 10 9 8 9 10 9 9 9 9 6 5 4 4 5 5 5 4 4 4 5 6 6 6 5 6 6 6 7 7 7 7 7 7 7 7 7 8 7 8 7 7 6 5 6 7 8 10 11
10 10 9 8 9 10 9 10 10 9 7 6 5 5 5 5 5 5 4 4 4 5 5 6 5 5 6 6 7 7 7 7 7 7 7 7 7 7 8 8 7 7 6 6 6 7 8 9 11
9 10 10 9 10 11 11 10 12 9 7 7 7 6 5 4 3 5 4 4 3 4 4 6 6 5 6 6 6 7 7 6 7 6 6 6 6 6 8 8 8 7 6 5 5 7 8 9 10
10 10 14 11 10 10 11 14 10 8 7 8 7 7 6 5 4 4 4 4 3 4 5 5 5 5 5 5 5 6 6 5 5 5 5 5 5 5 6 7 7 7 6 7 8 9 10 11 11
12 16 14 13 10 11 12 14 12 9 8 8 8 7 6 6 5 5 4 3 3 4 4 5 5 5 5 5 5 5 5 5 4 4 4 4 4 5 6 7 7 7 7 7 8 9 11 11 11
16 15 13 14 12 11 12 13 13 13 9 9 9 8 7 7 6 6 4 3 3 3 4 5 5 5 5 5 6 6 6 5 5 5 5 5 6 6 7 8 8 8 8 8 8 8 8 10 10
12 13 14 13 11 11 12 13 14 13 14 13 13 10 9 10 10 9 5 3 3 4 5 5 5 5 6 6 6 6 6 6 5 5 6 6 6 7 8 8 8 8 8 7 6 6 7 7 11
12 14 14 12 10 11 13 14 13 13 13 14 13 12 12 11 11 10 9 9 8 7 6 4 5 5 6 5 6 6 6 6 6 6 6 6 7 7 7 7 7 7 6 6 7 7 8 9 10
13 14 14 14 12 12 14 14 14 14 13 14 14 13 12 11 11 11 11 10 10 10 9 8 7 6 6 6 6 6 7 8 8 8 7 6 6 6 6 6 7 7 6 6 6 6 7 7 8
15 11 11 13 14 17 13 19 15 15 15 15 13 13 12 12 11 11 11 11 11 11 10 9 9 9 8 7 7 7 8 8 7 8 7 7 7 7 7 7 7 7 6 6 5 5 5 5 6
13 10 11 12 14 15 15 17 16 15 17 15 14 13 13 12 12 12 11 11 11 11 11 11 10 10 9 9 9 9 9 9 9 8 9 9 8 7 7 7 6 6 6 6 5 5 4 4 5
11 12 14 15 15 19 16 16 17 18 16 16 13 13 13 13 12 12 11 11 12 12 12 12 12 12 11 11 10 10 10 10 11 11 10 9 8 7 7 6 6 6 6 6 5 5 5 5 4
12 13 19 20 20 20 17 17 15 16 15 14 14 13 13 13 13 13 13 13 13 13 13 13 13 13 13 13 12 12 11 11 10 10 9 10 9 9 9 8 8 7 6 6 6 6 5 5 5
14 15 18 22 21 21 17 19 15 15 14 13 13 13 14 15 14 14 13 14 14 14 14 14 14 14 14 13 12 11 10 10 11 11 11 11 10 10 9 9 9 8 8 7 7 6 6 6 5
16 17 15 19 20 22 21 20 17 17 15 14 14 14 14 15 15 14 14 14 14 14 14 14 15 15 14 12 12 12 12 12 12 12 12 11 11 10 10 10 10 9 9 8 8 8 7 7 6
14 14 18 18 22 23 22 22 20 18 16 15 14 14 15 15 14 14 14 14 14 15 15 16 15 14 13 13 13 13 13 12 12 12 13 13 12 11 11 11 11 10 10 10 9 9 8 8 8
16 17 16 17 18 20 21 21 18 16 15 15 14 14 14 15 14 14 14 14 15 16 16 14 14 13 14 13 14 14 13 13 13 14 14 13 12 12 12 12 11 11 11 11 11 10 10 10 10
14 16 16 18 21 20 21 21 17 15 14 13 14 14 14 14 14 14 14 15 16 15 14 14 13 14 14 15 14 14 14 14 14 14 14 13 13 12 12 12 12 12 12 11 11 11 11 11 11